H1 CPF 2 NER 2024 9 30 9 274 01 glonass141 H2 1908801 9141 44850 2024 9 30 0 0 0 2024 10 3 23 45 0 900 1 1 0 0 0 1 H9 10 0 60583 0.00000 0 -1777279.680 24165908.872 8026174.446 10 0 60583 900.00000 0 -1744075.739 22985668.607 10967247.118 10 0 60583 1800.00000 0 -1862122.612 21463826.811 13695765.061 10 0 60583 2700.00000 0 -2171550.969 19645981.214 16158904.884 10 0 60583 3600.00000 0 -2703010.392 17586820.243 18308994.063 10 0 60583 4500.00000 0 -3476155.428 15347951.271 20104423.350 10 0 60583 5400.00000 0 -4498599.724 12995459.415 21510442.256 10 0 60583 6300.00000 0 -5765382.335 10597297.659 22499823.365 10 0 60583 7200.00000 0 -7258969.147 8220615.800 23053383.577 10 0 60583 8100.00000 0 -8949790.302 5929137.883 23160353.010 10 0 60583 9000.00000 0 -10797292.562 3780695.613 22818584.865 10 0 60583 9900.00000 0 -12751464.317 1825018.855 22034602.256 10 0 60583 10800.00000 0 -14754771.485 101873.741 20823480.743 10 0 60583 11700.00000 0 -16744425.491 -1360375.223 19208568.067 10 0 60583 12600.00000 0 -18654890.468 -2545719.913 17221045.430 10 0 60583 13500.00000 0 -20420526.554 -3450940.815 14899337.483 10 0 60583 14400.00000 0 -21978259.943 -4085498.890 12288381.023 10 0 60583 15300.00000 0 -23270168.615 -4470891.504 9438765.232 10 0 60583 16200.00000 0 -24245875.461 -4639499.365 6405758.972 10 0 60583 17100.00000 0 -24864648.010 -4632972.821 3248243.144 10 0 60583 18000.00000 0 -25097115.622 -4500225.517 27568.445 10 0 60583 18900.00000 0 -24926530.718 -4295120.364 -3193639.304 10 0 60583 19800.00000 0 -24349519.555 -4073946.159 -6352702.655 10 0 60583 20700.00000 0 -23376289.492 -3892792.504 -9388120.233 10 0 60583 21600.00000 0 -22030282.691 -3804935.342 -12240773.797 10 0 60583 22500.00000 0 -20347289.811 -3858345.240 -14855089.997 10 0 60583 23400.00000 0 -18374060.222 -4093425.498 -17180133.073 10 0 60583 24300.00000 0 -16166466.819 -4541077.443 -19170606.210 10 0 60583 25200.00000 0 -13787302.430 -5221176.257 -20787741.223 10 0 60583 26100.00000 0 -11303800.467 -6141523.179 -22000058.688 10 0 60583 27000.00000 0 -8784984.009 -7297319.478 -22783983.425 10 0 60583 27900.00000 0 -6298954.582 -8671185.327 -23124303.336 10 0 60583 28800.00000 0 -3910234.215 -10233723.453 -23014462.825 10 0 60583 29700.00000 0 -1677271.800 -11944604.276 -22456685.452 10 0 60583 30600.00000 0 349782.485 -13754127.167 -21461923.871 10 0 60583 31500.00000 0 2130942.454 -15605192.231 -20049638.543 10 0 60583 32400.00000 0 3637814.123 -17435599.804 -18247410.064 10 0 60583 33300.00000 0 4854528.709 -19180580.992 -16090393.180 10 0 60583 34200.00000 0 5778143.191 -20775452.911 -13620623.658 10 0 60583 35100.00000 0 6418493.805 -22158287.127 -10886192.042 10 0 60583 36000.00000 0 6797510.825 -23272479.313 -7940300.858 10 0 60583 36900.00000 0 6948025.671 -24069112.415 -4840224.188 10 0 60583 37800.00000 0 6912122.633 -24509014.452 -1646190.294 10 0 60583 38700.00000 0 6739106.502 -24564425.034 1579790.529 10 0 60583 39600.00000 0 6483173.320 -24220201.282 4775129.765 10 0 60583 40500.00000 0 6200883.638 -23474513.245 7877872.573 10 0 60583 41400.00000 0 5948545.606 -22339000.365 10827894.323 10 0 60583 42300.00000 0 5779618.606 -20838383.076 13568058.769 10 0 60583 43200.00000 0 5742246.908 -19009546.249 16045315.975 10 0 60583 44100.00000 0 5877026.997 -16900132.966 18211719.498 10 0 60583 45000.00000 0 6215102.211 -14566707.227 20025344.089 10 0 60583 45900.00000 0 6776664.484 -12072561.656 21451087.249 10 0 60583 46800.00000 0 7569925.951 -9485260.595 22461340.265 10 0 60583 47700.00000 0 8590603.717 -6874019.585 23036516.714 10 0 60583 48600.00000 0 9821939.905 -4307028.679 23165429.027 10 0 60583 49500.00000 0 11235257.085 -1848829.102 22845506.292 10 0 60583 50400.00000 0 12791027.169 442149.340 22082849.149 10 0 60583 51300.00000 0 14440410.707 2515789.370 20892120.376 10 0 60583 52200.00000 0 16127204.040 4332135.669 19296272.527 10 0 60583 53100.00000 0 17790114.653 5862816.628 17326116.811 10 0 60583 54000.00000 0 19365271.191 7091979.858 15019740.251 10 0 60583 54900.00000 0 20788864.341 8016702.776 12421780.962 10 0 60583 55800.00000 0 21999808.695 8646861.146 9582574.292 10 0 60583 56700.00000 0 22942314.246 9004461.049 6557185.169 10 0 60583 57600.00000 0 23568259.207 9122462.201 3404344.594 10 0 60583 58500.00000 0 23839263.582 9043142.094 185310.500 10 0 60583 59400.00000 0 23728375.013 8816070.075 -3037324.929 10 0 60583 60300.00000 0 23221294.405 8495777.289 -6200857.920 10 0 60583 61200.00000 0 22317088.033 8139221.678 -9243701.186 10 0 60583 62100.00000 0 21028354.564 7803156.284 -12106592.554 10 0 60583 63000.00000 0 19380838.506 7541513.445 -14733759.492 10 0 60583 63900.00000 0 17412505.213 7402917.043 -17074015.706 10 0 60583 64800.00000 0 15172115.532 7428429.507 -19081767.451 10 0 60583 65700.00000 0 12717359.481 7649630.287 -20717909.118 10 0 60583 66600.00000 0 10112627.083 8087108.321 -21950590.078 10 0 60583 67500.00000 0 7426509.796 8749433.192 -22755837.537 10 0 60583 68400.00000 0 4729137.209 9632649.242 -23118023.256 10 0 60583 69300.00000 0 2089460.484 10720314.487 -23030165.178 10 0 60583 70200.00000 0 -427404.025 11984082.996 -22494058.462 10 0 60583 71100.00000 0 -2762660.366 13384806.286 -21520233.828 10 0 60583 72000.00000 0 -4866044.622 14874107.282 -20127744.503 10 0 60583 72900.00000 0 -6697671.216 16396360.378 -18343786.493 10 0 60583 73800.00000 0 -8229438.131 17890994.096 -16203160.075 10 0 60583 74700.00000 0 -9445933.943 19295019.148 -13747583.537 10 0 60583 75600.00000 0 -10344810.724 20545675.370 -11024873.065 10 0 60583 76500.00000 0 -10936609.325 21583086.028 -8088005.209 10 0 60583 77400.00000 0 -11244046.637 22352807.809 -4994080.755 10 0 60583 78300.00000 0 -11300796.992 22808169.344 -1803210.594 10 0 60583 79200.00000 0 -11149821.010 22912300.188 1422654.293 10 0 60583 80100.00000 0 -10841314.037 22639765.316 4620925.638 10 0 60583 81000.00000 0 -10430362.029 21977736.960 7729589.946 10 0 60583 81900.00000 0 -9974404.666 20926655.076 10688406.298 10 0 60583 82800.00000 0 -9530613.183 19500349.214 13440066.909 10 0 60583 83700.00000 0 -9153293.568 17725616.994 15931298.454 10 0 60583 84600.00000 0 -8891424.265 15641276.907 18113883.621 10 0 60583 85500.00000 0 -8786431.599 13296734.796 19945584.052 10 0 60584 0.00000 0 -8870295.901 10750123.471 21390947.792 10 0 60584 900.00000 0 -9164067.498 8066090.590 22421987.471 10 0 60584 1800.00000 0 -9676854.421 5313328.996 23018715.217 10 0 60584 2700.00000 0 -10405324.460 2561946.079 23169527.375 10 0 60584 3600.00000 0 -11333742.797 -119217.019 22871430.040 10 0 60584 4500.00000 0 -12434544.495 -2665208.086 22130101.956 10 0 60584 5400.00000 0 -13669419.098 -5017421.033 20959793.120 10 0 60584 6300.00000 0 -14990863.404 -7125787.004 19383060.298 10 0 60584 7200.00000 0 -16344139.013 -8950609.441 17430343.516 10 0 60584 8100.00000 0 -17669554.179 -10463967.595 15139390.408 10 0 60584 9000.00000 0 -18904975.653 -11650630.398 12554538.151 10 0 60584 9900.00000 0 -19988466.055 -12508442.715 9725865.562 10 0 60584 10800.00000 0 -20860936.436 -13048167.741 6708230.598 10 0 60584 11700.00000 0 -21468702.432 -13292792.027 3560211.077 10 0 60584 12600.00000 0 -21765835.735 -13276322.168 342968.715 10 0 60584 13500.00000 0 -21716210.733 -13042123.827 -2880941.483 10 0 60584 14400.00000 0 -21295158.509 -12640873.357 -6048792.991 10 0 60584 15300.00000 0 -20490656.759 -12128209.009 -9098916.155 10 0 60584 16200.00000 0 -19304003.649 -11562181.776 -11971908.328 10 0 60584 17100.00000 0 -17749945.474 -11000614.706 -14611801.097 10 0 60584 18000.00000 0 -15856251.271 -10498483.612 -16967160.697 10 0 60584 18900.00000 0 -13662751.053 -10105431.254 -18992099.164 10 0 60584 19800.00000 0 -11219877.204 -9863521.368 -20647175.732 10 0 60584 20700.00000 0 -8586769.702 -9805328.590 -21900170.282 10 0 60584 21600.00000 0 -5829024.319 -9952445.903 -22726713.514 10 0 60584 22500.00000 0 -3016177.884 -10314473.225 -23110761.504 10 0 60584 23400.00000 0 -219035.779 -10888530.215 -23044905.561 10 0 60584 24300.00000 0 2493046.823 -11659313.912 -22530511.702 10 0 60584 25200.00000 0 5054816.716 -12599698.652 -21577687.452 10 0 60584 26100.00000 0 7407597.180 -13671852.662 -20205077.129 10 0 60584 27000.00000 0 9501482.773 -14828823.817 -18439490.118 10 0 60584 27900.00000 0 11297163.861 -16016527.289 -16315369.904 10 0 60584 28800.00000 0 12767306.071 -17176050.792 -13874114.735 10 0 60584 29700.00000 0 13897428.733 -18246179.846 -11163263.672 10 0 60584 30600.00000 0 14686247.522 -19166036.275 -8235564.366 10 0 60584 31500.00000 0 15145469.068 -19877718.506 -5147941.270 10 0 60584 32400.00000 0 15299048.353 -20328832.281 -1960384.819 10 0 60584 33300.00000 0 15181942.207 -20474805.270 1265216.378 10 0 60584 34200.00000 0 14838413.247 -20280888.247 4466277.267 10 0 60584 35100.00000 0 14319957.241 -19723758.948 7580728.484 10 0 60584 36000.00000 0 13682942.384 -18792661.495 10548215.369 10 0 60584 36900.00000 0 12986060.661 -17490033.850 13311260.844 10 0 60584 37800.00000 0 12287698.934 -15831597.198 15816370.112 10 0 60584 38700.00000 0 11643340.247 -13845903.491 18015056.552 10 0 60584 39600.00000 0 11103104.258 -11573359.829 19864769.888 10 0 60584 40500.00000 0 10709529.484 -9064769.735 21329709.757 10 0 60584 41400.00000 0 10495689.761 -6379451.174 22381510.067 10 0 60584 42300.00000 0 10483723.317 -3583008.296 22999781.907 10 0 60584 43200.00000 0 10683835.711 -744847.916 23172505.331 10 0 60584 44100.00000 0 11093818.310 2064457.952 22896262.931 10 0 60584 45000.00000 0 11699102.810 4775855.874 22176310.795 10 0 60584 45900.00000 0 12473350.183 7324431.524 21026485.160 10 0 60584 46800.00000 0 13379550.467 9651859.798 19468945.841 10 0 60584 47700.00000 0 14371588.530 11708583.992 17533760.363 10 0 60584 48600.00000 0 15396211.561 13455634.383 15258335.521 10 0 60584 49500.00000 0 16395316.932 14866011.022 12686705.970 10 0 60584 50400.00000 0 17308465.328 15925573.227 9868692.286 10 0 60584 51300.00000 0 18075514.074 16633398.542 6858943.619 10 0 60584 52200.00000 0 18639259.858 17001595.889 3715882.632 10 0 60584 53100.00000 0 18947979.084 17054580.486 500572.748 10 0 60584 54000.00000 0 18957757.738 16827840.811 -2724470.365 10 0 60584 54900.00000 0 18634511.081 16366249.582 -5896499.617 10 0 60584 55800.00000 0 17955606.188 15721990.215 -8953765.146 10 0 60584 56700.00000 0 16911016.994 14952186.865 -11836725.923 10 0 60584 57600.00000 0 15503961.193 14116338.957 -14489219.633 10 0 60584 58500.00000 0 13750990.384 13273669.664 -16859566.887 10 0 60584 59400.00000 0 11681528.108 12480501.485 -18901587.229 10 0 60584 60300.00000 0 9336873.947 11787770.948 -20575506.341 10 0 60584 61200.00000 0 6768714.616 11238788.412 -21848736.130 10 0 60584 62100.00000 0 4037203.863 10867338.356 -22696512.196 10 0 60584 63000.00000 0 1208691.204 10696200.816 -23102376.221 10 0 60584 63900.00000 0 -1646805.692 10736156.572 -23058493.987 10 0 60584 64800.00000 0 -4458279.517 10985517.924 -22565803.226 10 0 60584 65700.00000 0 -7156451.135 11430204.451 -21633988.804 10 0 60584 66600.00000 0 -9676413.563 12044359.997 -20281286.273 10 0 60584 67500.00000 0 -11960092.387 12791484.110 -18534118.119 10 0 60584 68400.00000 0 -13958420.757 13626029.436 -16426570.337 10 0 60584 69300.00000 0 -15633139.252 14495396.871 -13999720.034 10 0 60584 70200.00000 0 -16958146.834 15342243.566 -11300827.709 10 0 60584 71100.00000 0 -17920348.101 16107005.734 -8382410.386 10 0 60584 72000.00000 0 -18519963.228 16730529.290 -5301214.223 10 0 60584 72900.00000 0 -18770289.671 17156696.981 -2117107.039 10 0 60584 73800.00000 0 -18696927.654 17334940.973 1108087.262 10 0 60584 74700.00000 0 -18336503.922 17222534.931 4311789.333 10 0 60584 75600.00000 0 -17734949.134 16786569.111 7431876.571 10 0 60584 76500.00000 0 -16945402.685 16005525.500 10407883.341 10 0 60584 77400.00000 0 -16025834.090 14870386.965 13182166.132 10 0 60584 78300.00000 0 -15036481.450 13385233.973 15701011.575 10 0 60584 79200.00000 0 -14037214.717 11567303.812 17915666.634 10 0 60584 80100.00000 0 -13084934.205 9446509.537 19783271.910 10 0 60584 81000.00000 0 -12231112.871 7064438.148 21267681.146 10 0 60584 81900.00000 0 -11519584.587 4472868.771 22340152.169 10 0 60584 82800.00000 0 -10984670.241 1731871.245 22979896.934 10 0 60584 83700.00000 0 -10649719.335 -1092437.421 23174480.868 10 0 60584 84600.00000 0 -10526127.597 -3930387.422 22920064.285 10 0 60584 85500.00000 0 -10612871.533 -6711399.700 22221481.354 10 0 60585 0.00000 0 -10896579.501 -9366670.643 21092154.885 10 0 60585 900.00000 0 -11352137.069 -11831789.625 19553847.220 10 0 60585 1800.00000 0 -11943801.701 -14049178.588 17636252.607 10 0 60585 2700.00000 0 -12626781.558 -15970258.022 15376435.634 10 0 60585 3600.00000 0 -13349212.851 -17557246.249 12818126.601 10 0 60585 4500.00000 0 -14054453.681 -18784518.670 10010885.603 10 0 60585 5400.00000 0 -14683598.456 -19639469.835 7009150.398 10 0 60585 6300.00000 0 -15178107.208 -20122841.962 3871185.649 10 0 60585 7200.00000 0 -15482438.630 -20248505.646 657953.425 10 0 60585 8100.00000 0 -15546574.951 -20042701.578 -2568073.149 10 0 60585 9000.00000 0 -15328330.746 -19542774.916 -5744129.740 10 0 60585 9900.00000 0 -14795346.561 -18795455.579 -8808389.666 10 0 60585 10800.00000 0 -13926681.221 -17854757.264 -11701176.918 10 0 60585 11700.00000 0 -12713933.638 -16779584.386 -14366138.635 10 0 60585 12600.00000 0 -11161844.818 -15631148.743 -16751353.007 10 0 60585 13500.00000 0 -9288352.928 -14470305.914 -18810350.053 10 0 60585 14400.00000 0 -7124097.548 -13354924.768 -20503024.507 10 0 60585 15300.00000 0 -4711392.739 -12337402.008 -21796422.438 10 0 60585 16200.00000 0 -2102711.118 -11462427.261 -22665385.947 10 0 60585 17100.00000 0 641258.182 -10765093.377 -23093043.316 10 0 60585 18000.00000 0 3453896.766 -10269431.676 -23071135.216 10 0 60585 18900.00000 0 6265194.087 -9987433.619 -22600170.931 10 0 60585 19800.00000 0 9004428.681 -9918599.550 -21689412.002 10 0 60585 20700.00000 0 11602881.812 -10050032.702 -20356684.080 10 0 60585 21600.00000 0 13996470.660 -10357073.460 -18628021.213 10 0 60585 22500.00000 0 16128191.733 -10804446.025 -16537149.976 10 0 60585 23400.00000 0 17950273.269 -11347867.910 -14124824.052 10 0 60585 24300.00000 0 19425947.802 -11936053.264 -11438022.731 10 0 60585 25200.00000 0 20530772.131 -12513024.432 -8529029.449 10 0 60585 26100.00000 0 21253441.041 -13020633.284 -5454408.827 10 0 60585 27000.00000 0 21596062.465 -13401185.196 -2273902.632 10 0 60585 27900.00000 0 21573884.412 -13600054.415 950733.468 10 0 60585 28800.00000 0 21214486.979 -13568180.171 4156929.333 10 0 60585 29700.00000 0 20556475.064 -13264338.144 7282512.488 10 0 60585 30600.00000 0 19647728.172 -12657091.608 10266909.415 10 0 60585 31500.00000 0 18543281.912 -11726340.215 13052312.921 10 0 60585 32400.00000 0 17302930.851 -10464401.382 15584793.409 10 0 60585 33300.00000 0 15988653.549 -8876578.828 17815333.320 10 0 60585 34200.00000 0 14661967.598 -6981194.202 19700765.590 10 0 60585 35100.00000 0 13381324.908 -4809079.882 21204599.073 10 0 60585 36000.00000 0 12199655.450 -2402553.228 22297716.099 10 0 60585 36900.00000 0 11162161.230 186086.237 22958929.665 10 0 60585 37800.00000 0 10304451.704 2896475.743 23175390.355 10 0 60585 38700.00000 0 9651097.669 5662446.406 22942835.626 10 0 60585 39600.00000 0 9214663.437 8414526.744 22265676.799 10 0 60585 40500.00000 0 8995257.418 11082590.662 21156921.782 10 0 60585 41400.00000 0 8980619.941 13598541.777 19637934.344 10 0 60585 42300.00000 0 9146744.994 15898924.139 17738033.558 10 0 60585 43200.00000 0 9459010.463 17927351.976 15493939.876 10 0 60585 44100.00000 0 9873770.198 19636658.091 12949077.156 10 0 60585 45000.00000 0 10340341.751 20990671.600 10152742.786 10 0 60585 45900.00000 0 10803306.727 21965550.688 7159160.805 10 0 60585 46800.00000 0 11205027.108 22550614.195 4026435.460 10 0 60585 47700.00000 0 11488271.242 22748636.565 815425.015 10 0 60585 48600.00000 0 11598838.040 22575593.149 -2411442.397 10 0 60585 49500.00000 0 11488067.402 22059865.984 -5591387.579 10 0 60585 50400.00000 0 11115129.278 21240943.150 -8662509.281 10 0 60585 51300.00000 0 10448992.845 20167666.408 -11564998.591 10 0 60585 52200.00000 0 9469990.564 18896101.232 -14242313.959 10 0 60585 53100.00000 0 8170909.105 17487119.534 -16642292.813 10 0 60585 54000.00000 0 6557559.150 16003797.749 -18718177.085 10 0 60585 54900.00000 0 4648798.344 14508740.752 -20429531.837 10 0 60585 55800.00000 0 2476004.967 13061445.196 -21743038.414 10 0 60585 56700.00000 0 82023.282 11715813.968 -22633146.383 10 0 60585 57600.00000 0 -2480376.064 10517926.810 -23082571.452 10 0 60585 58500.00000 0 -5150456.647 9504161.004 -23082629.790 10 0 60585 59400.00000 0 -7861816.225 8699740.895 -22633402.605 10 0 60585 60300.00000 0 -10544930.164 8117776.611 -21743728.150 10 0 60585 61200.00000 0 -13129832.257 7758831.448 -20431021.864 10 0 60585 62100.00000 0 -15548821.231 7611034.857 -18720928.654 10 0 60585 63000.00000 0 -17739080.293 7650734.859 -16646814.605 10 0 60585 63900.00000 0 -19645100.815 7843660.877 -14249108.584 10 0 60585 64800.00000 0 -21220809.631 8146546.439 -11574507.032 10 0 60585 65700.00000 0 -22431312.015 8509141.897 -8675057.954 10 0 60585 66600.00000 0 -23254178.603 8876530.931 -5607142.464 10 0 60585 67500.00000 0 -23680223.807 9191651.982 -2430374.195 10 0 60585 68400.00000 0 -23713744.708 9397917.335 793561.593 10 0 60585 69300.00000 0 -23372212.013 9441818.705 4002106.247 10 0 60585 70200.00000 0 -22685427.665 9275409.013 7133039.792 10 0 60585 71100.00000 0 -21694185.859 8858555.586 10125683.316 10 0 60585 72000.00000 0 -20448494.818 8160869.810 12922068.505 10 0 60585 72900.00000 0 -19005434.696 7163232.102 15468052.143 10 0 60585 73800.00000 0 -17426741.755 5858848.082 17714354.727 10 0 60585 74700.00000 0 -15776219.940 4253791.479 19617503.994 10 0 60585 75600.00000 0 -14117087.669 2367010.569 21140666.193 10 0 60585 76500.00000 0 -12509369.923 229797.100 22254350.170 10 0 60585 77400.00000 0 -11007443.507 -2115261.266 22936971.642 10 0 60585 78300.00000 0 -9657836.785 -4615802.858 23175267.647 10 0 60585 79200.00000 0 -8497374.517 -7211626.688 22964553.672 10 0 60585 80100.00000 0 -7551744.253 -9836961.464 22308818.646 10 0 60585 81000.00000 0 -6834543.362 -12422976.658 21220655.718 10 0 60585 81900.00000 0 -6346846.075 -14900433.222 19721029.462 10 0 60585 82800.00000 0 -6077308.586 -17202365.451 17838883.005 10 0 60585 83700.00000 0 -6002808.027 -19266683.730 15610591.404 10 0 60585 84600.00000 0 -6089588.950 -21038590.702 13079270.433 10 0 60585 85500.00000 0 -6294869.710 -22472710.421 10293952.801 10 0 60586 0.00000 0 -6568841.629 -23534841.441 7308646.855 10 0 60586 900.00000 0 -6856977.148 -24203260.530 4181293.416 10 0 60586 1800.00000 0 -7102549.174 -24469520.278 972644.559 10 0 60586 2700.00000 0 -7249255.285 -24338708.142 -2254919.356 10 0 60586 3600.00000 0 -7243834.608 -23829153.700 -5438607.163 10 0 60586 4500.00000 0 -7038565.572 -22971596.324 -8516446.031 10 0 60586 5400.00000 0 -6593537.198 -21807847.782 -11428497.192 10 0 60586 6300.00000 0 -5878596.030 -20389005.947 -14118033.466 10 0 60586 7200.00000 0 -4874884.422 -18773295.046 -16532654.506 10 0 60586 8100.00000 0 -3575903.271 -17023623.862 -18625316.993 10 0 60586 9000.00000 0 -1988052.549 -15204965.287 -20355258.877 10 0 60586 9900.00000 0 -130625.261 -13381668.203 -21688798.988 10 0 60586 10800.00000 0 1964746.246 -11614815.328 -22599996.125 10 0 60586 11700.00000 0 4255169.386 -9959738.470 -23071154.683 10 0 60586 12600.00000 0 6688051.315 -8463795.708 -23093167.095 10 0 60586 13500.00000 0 9203074.921 -7164503.577 -22665686.747 10 0 60586 14400.00000 0 11734508.431 -6088102.049 -21797128.403 10 0 60586 15300.00000 0 14213752.204 -5248611.557 -20504496.640 10 0 60586 16200.00000 0 16572016.388 -4647420.321 -18813046.161 10 0 60586 17100.00000 0 18743017.725 -4273417.716 -16755781.091 10 0 60586 18000.00000 0 20665582.998 -4103666.310 -14372803.583 10 0 60586 18900.00000 0 22286050.748 -4104582.421 -11710524.913 10 0 60586 19800.00000 0 23560371.419 -4233573.707 -8820754.929 10 0 60586 20700.00000 0 24455818.876 -4441063.019 -5759688.146 10 0 60586 21600.00000 0 24952242.703 -4672811.737 -2586806.682 10 0 60586 22500.00000 0 25042810.067 -4872443.284 636278.184 10 0 60586 23400.00000 0 24734207.403 -4984059.420 3847022.900 10 0 60586 24300.00000 0 24046294.845 -4954838.272 6983163.528 10 0 60586 25200.00000 0 23011229.210 -4737504.178 9983919.093 10 0 60586 26100.00000 0 21672093.389 -4292565.058 12791163.189 10 0 60586 27000.00000 0 20081090.387 -3590223.160 15350541.627 10 0 60586 27900.00000 0 18297378.061 -2611878.780 17612515.202 10 0 60586 28800.00000 0 16384635.130 -1351163.774 19533308.257 10 0 60586 29700.00000 0 14408459.799 185538.746 21075745.815 10 0 60586 30600.00000 0 12433708.756 1979110.886 22209964.189 10 0 60586 31500.00000 0 10521886.513 3998252.832 22913982.356 10 0 60586 32400.00000 0 8728692.581 6200550.338 23174123.920 10 0 60586 33300.00000 0 7101827.364 8534014.018 22985282.084 10 0 60586 34200.00000 0 5679146.922 10939028.200 22351022.655 10 0 60586 35100.00000 0 4487242.432 13350630.273 21283522.868 10 0 60586 36000.00000 0 3540502.783 15701027.722 19803346.570 10 0 60586 36900.00000 0 2840699.011 17922249.826 17939059.066 10 0 60586 37800.00000 0 2377107.759 19948825.144 15726687.853 10 0 60586 38700.00000 0 2127168.737 21720374.194 13209038.217 10 0 60586 39600.00000 0 2057648.885 23184009.629 10434875.610 10 0 60586 40500.00000 0 2126264.631 24296443.636 7457989.422 10 0 60586 41400.00000 0 2283694.201 25025713.874 4336155.334 10 0 60586 42300.00000 0 2475895.121 25352454.798 1130015.886 10 0 60586 43200.00000 0 2646628.752 25270659.933 -2098099.128 10 0 60586 44100.00000 0 2740084.437 24787901.967 -5285389.261 10 0 60586 45000.00000 0 2703491.191 23925000.343 -8369812.620 10 0 60586 45900.00000 0 2489604.960 22715149.518 -11291302.864 10 0 60586 46800.00000 0 2058964.519 21202544.029 -13992949.201 10 0 60586 47700.00000 0 1381818.724 19440558.050 -16422115.234 10 0 60586 48600.00000 0 439641.772 17489556.124 -18531473.852 10 0 60586 49500.00000 0 -773829.359 15414427.505 -20279937.093 10 0 60586 50400.00000 0 -2252080.634 13281948.243 -21633462.248 10 0 60586 51300.00000 0 -3975852.957 11158082.288 -22565718.105 10 0 60586 52200.00000 0 -5913720.154 9105335.284 -23058598.294 10 0 60586 53100.00000 0 -8023189.509 7180272.191 -23102571.810 10 0 60586 54000.00000 0 -10252279.199 5431302.672 -22696864.226 10 0 60586 54900.00000 0 -12541506.873 3896826.448 -21849466.497 10 0 60586 55800.00000 0 -14826206.186 2603815.500 -20576971.648 10 0 60586 56700.00000 0 -17039074.430 1566891.159 -18904243.109 10 0 60586 57600.00000 0 -19112844.657 787933.204 -16863921.627 10 0 60586 58500.00000 0 -20982970.536 256235.464 -14495780.928 10 0 60586 59400.00000 0 -22590211.733 -50800.622 -11845945.173 10 0 60586 60300.00000 0 -23883011.941 -166465.750 -8965983.950 10 0 60586 61200.00000 0 -24819570.402 -133088.290 -5911902.959 10 0 60586 62100.00000 0 -25369520.859 2.821 -2743050.518 10 0 60586 63000.00000 0 -25515148.479 178810.377 479038.403 10 0 60586 63900.00000 0 -25252094.705 347196.756 3691837.744 10 0 60586 64800.00000 0 -24589521.664 449499.742 6833042.050 10 0 60586 65700.00000 0 -23549730.283 433125.404 9841770.767 10 0 60586 66600.00000 0 -22167249.129 251008.412 12659741.903 10 0 60586 67500.00000 0 -20487432.847 -136163.912 15232392.768 10 0 60586 68400.00000 0 -18564629.297 -758057.348 17509926.815 10 0 60586 69300.00000 0 -16459992.001 -1633205.904 19448267.188 10 0 60586 70200.00000 0 -14239028.917 -2767998.666 21009899.607 10 0 60586 71100.00000 0 -11968988.945 -4156181.181 22164589.452 10 0 60586 72000.00000 0 -9716193.992 -5778892.833 22889960.172 10 0 60586 72900.00000 0 -7543426.310 -7605239.693 23171922.763 10 0 60586 73800.00000 0 -5507478.330 -9593380.301 23004948.552 10 0 60586 74700.00000 0 -3656965.492 -11692080.816 22392180.231 10 0 60586 75600.00000 0 -2030491.760 -13842676.604 21345378.762 10 0 60586 76500.00000 0 -655243.119 -15981360.515 19884706.525 10 0 60586 77400.00000 0 453933.087 -18041704.328 18038349.930 10 0 60586 78300.00000 0 1294924.985 -19957309.826 15841987.493 10 0 60586 79200.00000 0 1878212.757 -21664480.061 13338112.289 10 0 60586 80100.00000 0 2226190.889 -23104799.899 10575220.505 10 0 60586 81000.00000 0 2371984.362 -24227518.034 7606880.604 10 0 60586 81900.00000 0 2357808.394 -24991630.347 4490700.150 10 0 60586 82800.00000 0 2232940.785 -25367576.366 1287209.848 10 0 60586 83700.00000 0 2051392.660 -25338476.463 -1941313.733 10 0 60586 84600.00000 0 1869376.538 -24900856.420 -5132063.576 10 0 60586 85500.00000 0 1742679.714 -24064827.572 -8222931.469 99